Home > Weather > The Settlement > Past weeks

Flag for Christmas Island Weather for the Past 2 Weeks in The Settlement, Christmas Island

Now
79 °F

Partly cloudy.


Feels Like: 82 °F
Forecast: 76 / 83 °F
Wind: 6 mph from West

Location: Christmas Island Aerodrome

Current Time: Feb 14, 2016 at 7:54:20 PM

Latest Report: Feb 14, 2016 at 7:00 PM


Visibility: N/A

Pressure: 29.89 "Hg

Humidity: 89%

Dew point: 75 °F

Location of The SettlementLocation

Historic Weather in The Settlement — Graph

°F

The Settlement Temperature Yesterday

Maximum temperature yesterday: 81 °F (at 10:02 AM)
Minimum temperature yesterday: 73 °F (at 12:00 AM)
Average temperature yesterday: 78 °F

High & Low Weather Summary for the Past Weeks

 TemperatureHumidityPressure
High84 °F (Feb 6, 10:30 AM)100% (Jan 30, 6:00 PM)29.95 "Hg (Jan 30, 6:00 PM)
Low73 °F (Jan 31, 9:00 PM)66% (Feb 6, 10:30 AM)29.74 "Hg (Jan 31, 2:00 PM)
Average78 °F88%29.85 "Hg
* Reported Jan 30 6:00 PM — Feb 14 6:30 PM, The Settlement, Weather by CustomWeather, © 2016

Note: Actual official high and low records may vary slightly from our data, if they occured in-between our weather recording intervals... More about our weather records

Advertising

The Settlement Weather History for the Previous 24 Hours

 ConditionsComfort  
Time TempWeatherWind HumidityBarometerVisibility
6:30 PM
Sun, Feb 14
79 °FSprinkles. Partly cloudy.7 mph89%29.86 "HgN/A
6:00 PM79 °FBroken clouds.8 mph89%29.86 "HgN/A
5:30 PM81 °FScattered clouds.8 mph84%29.86 "HgN/A
5:00 PM79 °FSunny.8 mph89%29.83 "HgN/A
4:30 PM79 °FScattered clouds.9 mph89%29.83 "HgN/A
4:00 PM79 °FScattered clouds.7 mph89%29.83 "HgN/A
3:30 PM79 °FRain. Cloudy.8 mph89%29.83 "Hg5 mi
3:00 PM82 °FScattered clouds.9 mph79%29.86 "HgN/A
2:30 PM81 °FSunny.8 mph84%29.86 "HgN/A
2:00 PM79 °FBroken clouds.9 mph94%29.86 "HgN/A
1:00 PM77 °FLight rain. Scattered clouds.8 mph94%29.86 "HgN/A
12:30 PM77 °FRain showers. Cloudy.8 mph94%29.89 "HgN/A
12:01 PM77 °FSprinkles. Cloudy.8 mph94%29.89 "HgN/A
11:00 AM81 °FScattered clouds.9 mph84%29.92 "HgN/A
10:56 AM81 °FScattered clouds.8 mph84%29.92 "HgN/A
10:00 AM82 °FBroken clouds.10 mph84%29.92 "HgN/A
9:00 AM81 °FPartly sunny.9 mph84%29.92 "HgN/A
8:30 AM81 °FMostly cloudy.9 mph84%29.92 "HgN/A
8:02 AM81 °FPartly sunny.8 mph84%29.92 "HgN/A
7:00 AM81 °FMostly cloudy.7 mph84%29.89 "HgN/A
6:00 AM79 °FBroken clouds.8 mph89%29.86 "HgN/A
5:00 AM79 °FPartly cloudy.7 mph89%29.86 "HgN/A
4:30 AM79 °FMostly cloudy.7 mph89%29.86 "HgN/A
4:00 AM79 °FPartly cloudy.8 mph89%29.83 "HgN/A
3:30 AM79 °FOvercast.8 mph89%29.83 "HgN/A
3:00 AM79 °FPassing clouds.9 mph89%29.83 "HgN/A
2:00 AM79 °FPassing clouds.8 mph89%29.86 "HgN/A
1:53 AM79 °FPassing clouds.8 mph89%29.86 "HgN/A
1:00 AM79 °FPartly cloudy.8 mph89%29.89 "HgN/A
12:30 AM79 °FPartly cloudy.8 mph89%29.89 "HgN/A
12:00 AM79 °FPassing clouds.8 mph89%29.89 "HgN/A
11:00 PM
Sat, Feb 13
77 °FPassing clouds.10 mph94%29.89 "HgN/A
10:00 PM77 °FSprinkles. Partly cloudy.9 mph89%29.89 "HgN/A
9:30 PM77 °FPassing clouds.8 mph89%29.89 "HgN/A
9:00 PM77 °FSprinkles. Partly cloudy.12 mph89%29.89 "HgN/A
8:30 PM79 °FMostly cloudy.10 mph89%29.89 "HgN/A
8:00 PM79 °FPassing clouds.10 mph89%29.89 "HgN/A
7:30 PM77 °FDrizzle. Mostly cloudy.9 mph94%29.89 "HgN/A
7:00 PM77 °FPassing clouds.10 mph94%29.89 "HgN/A
Weather by CustomWeather, © 2016

See weather overviewHow to use our weather pages